Temperature
22 22 21 21 23 25 27 29 30 30 30 30 30 29 28 27 26 24 23 22 22 21 21 21 20 20 20 20 20 20 20 20 20 20 19 19 19 19 19 19 19 19 19 19 19 19 18 18 18
22 21 22 23 24 26 28 30 30 30 30 30 30 29 28 26 25 24 23 22 22 21 21 20 20 20 20 20 20 20 20 20 20 19 19 19 19 19 19 19 19 19 19 19 19 18 18 18 18
22 22 24 25 27 28 28 30 31 31 31 30 29 28 27 26 25 23 23 22 22 21 21 21 21 20 20 20 20 20 20 20 19 19 19 19 19 19 19 19 19 19 19 19 18 18 18 18 18
22 24 25 27 28 30 30 31 31 31 31 30 29 28 26 25 24 24 23 23 22 21 21 21 21 20 20 20 20 20 20 20 19 20 19 19 19 19 19 19 19 19 19 19 19 19 18 18 18
24 26 27 28 29 30 31 31 32 31 31 30 28 27 25 25 24 24 24 23 22 21 21 21 21 21 20 20 20 20 20 20 20 20 19 19 19 19 19 19 19 19 19 19 19 19 19 19 18
26 28 28 29 30 31 32 32 32 31 31 30 28 26 25 24 24 24 24 23 23 22 21 21 21 21 21 20 20 20 20 20 20 20 19 19 19 19 19 19 19 19 19 19 19 19 19 19 19
27 28 29 31 31 31 32 32 32 31 31 30 29 26 25 24 24 24 23 23 22 22 22 21 21 21 21 20 20 20 20 20 20 19 19 19 19 19 19 19 19 19 19 19 19 19 19 19 19
28 29 30 31 31 31 32 32 31 31 30 30 29 27 25 24 24 24 23 23 22 22 22 21 21 21 21 20 20 20 20 20 20 19 19 19 19 19 19 19 19 19 19 19 19 19 19 19 19
29 29 30 31 31 31 32 32 31 31 30 29 29 27 26 25 24 24 23 23 22 22 22 21 21 21 21 20 20 20 20 20 19 19 19 19 19 19 19 19 19 19 19 19 19 19 19 19 19
30 30 32 33 33 33 33 32 32 31 30 29 28 27 26 25 25 24 24 23 23 22 22 22 21 21 21 20 20 20 20 20 19 19 19 19 19 19 19 19 19 19 19 19 19 19 19 19 19
32 32 33 34 33 33 33 32 32 31 30 29 28 27 26 25 25 25 24 23 23 22 22 22 22 21 21 21 20 20 20 20 19 19 19 19 19 19 19 19 19 19 19 19 19 19 19 18 19
33 34 34 34 33 33 33 32 31 31 30 29 28 27 26 26 25 25 24 23 23 22 22 22 22 21 21 21 20 20 20 20 20 19 19 19 19 19 19 19 19 19 19 19 19 19 18 18 18
34 34 34 34 34 33 32 32 32 31 30 29 28 27 27 26 25 25 24 24 23 23 22 22 22 21 21 21 20 20 20 20 20 20 19 19 19 19 19 19 19 19 19 19 19 19 19 18 18
34 34 34 34 33 33 33 32 32 31 30 29 28 27 27 26 26 25 24 24 23 23 22 22 21 21 21 21 20 20 20 20 20 20 19 19 19 19 19 19 19 19 19 19 19 19 19 19 18
33 33 33 33 33 33 33 31 31 31 30 29 28 28 27 26 26 25 25 24 23 22 22 22 21 21 21 20 20 20 20 20 20 20 20 19 19 19 19 19 19 19 19 19 19 19 19 19 19
32 31 31 33 33 33 32 30 31 31 30 30 29 28 27 26 26 25 25 24 23 22 22 22 21 21 21 20 20 20 20 20 20 20 20 19 19 19 19 19 19 19 19 19 19 19 19 19 19
31 31 31 32 33 33 32 31 32 31 31 30 29 28 27 26 26 25 25 24 23 22 22 22 21 21 21 20 20 20 20 20 20 20 20 19 19 19 19 19 19 19 19 19 19 19 19 19 18
30 31 31 31 33 33 32 31 32 32 31 31 30 29 28 27 26 25 25 24 23 22 22 21 21 21 21 20 20 20 20 20 20 20 20 19 19 19 19 19 19 19 19 19 19 19 19 18 18
32 32 31 32 34 33 32 31 32 32 32 31 30 29 28 27 27 26 25 24 23 22 22 21 21 21 21 20 20 20 20 20 20 20 20 19 19 19 19 19 19 19 19 19 18 18 18 18 18
32 32 32 32 33 33 32 31 32 33 32 31 30 29 29 28 27 26 25 24 23 22 22 21 21 21 21 21 20 20 20 20 20 20 20 19 19 19 19 19 19 19 19 18 18 18 18 18 18
33 32 32 32 33 33 32 31 31 32 32 32 31 30 29 28 27 26 25 24 23 22 22 21 21 21 21 20 20 20 20 20 20 20 20 19 19 19 19 19 19 19 18 18 18 18 18 18 18
32 34 33 32 32 31 32 30 31 31 31 32 31 30 29 28 27 26 25 24 23 22 22 21 21 21 21 20 20 20 20 20 20 20 20 19 19 19 19 19 19 19 18 18 18 18 18 18 18
33 34 33 33 32 31 31 30 30 31 30 31 31 31 30 29 28 26 25 24 24 23 22 21 21 21 21 21 20 20 20 20 20 20 20 19 19 19 19 19 19 18 18 18 18 18 18 18 18
34 33 33 32 32 30 30 30 29 30 30 31 31 31 30 29 28 26 25 24 24 23 22 21 21 21 21 20 20 20 20 20 20 20 19 19 19 19 19 18 19 18 18 18 18 18 18 18 18
34 32 30 30 30 30 31 31 30 31 32 32 31 30 30 29 28 27 26 25 24 23 22 22 21 21 21 21 20 20 20 20 20 19 19 19 19 19 19 19 19 18 18 18 18 18 18 18 18
33 32 30 29 30 30 31 30 31 32 32 31 31 30 30 29 28 27 26 25 24 23 23 22 21 21 21 20 20 20 20 20 19 19 19 19 19 19 19 19 18 18 18 18 18 18 18 18 18
33 33 33 32 30 30 30 31 31 32 32 32 31 30 29 29 28 27 26 25 24 24 23 22 21 21 20 20 20 20 20 19 19 19 19 19 19 19 18 18 18 18 18 18 18 18 17 17 17
33 33 32 31 29 29 29 29 29 31 31 31 30 30 29 29 28 27 26 25 24 24 23 22 21 21 20 20 20 20 20 19 19 19 19 18 18 18 18 18 18 18 18 18 17 17 17 17 17
33 32 32 30 30 29 28 29 31 30 31 30 29 28 28 28 27 27 26 25 24 24 23 22 21 20 20 20 20 19 19 19 19 19 18 18 18 18 18 18 18 18 17 17 17 17 17 17 17
33 32 32 30 29 30 30 29 31 30 31 30 29 28 28 28 27 26 25 25 24 23 22 22 21 21 20 20 20 19 19 19 19 19 18 18 18 18 18 17 17 17 17 17 17 17 17 17 17
Wind_Speed
9 10 9 5 4 2 5 9 11 12 11 11 11 11 14 13 10 8 7 10 14 15 14 13 13 13 13 13 13 12 12 12 12 12 11 10 10 9 9 8 10 11 10 10 9 9 8 8 8
9 10 6 4 1 3 7 9 11 11 10 9 11 13 15 14 13 10 8 10 13 14 13 13 14 14 13 13 13 13 12 12 11 11 11 10 9 9 9 9 10 10 10 9 8 8 8 8 8
10 11 5 3 2 6 8 9 10 9 9 9 11 12 10 9 11 9 10 11 13 14 14 14 15 14 14 13 13 12 12 11 11 10 10 9 9 9 9 9 9 9 9 8 8 7 7 7 7
7 7 5 1 5 7 7 8 8 9 9 10 11 11 11 10 10 11 11 12 13 14 14 15 15 15 14 14 13 12 11 11 10 9 9 9 8 8 9 9 8 8 7 7 7 7 7 6 7
8 5 3 3 8 7 8 8 9 10 10 13 13 13 12 11 12 12 11 12 13 13 14 16 16 16 15 14 13 13 11 10 9 8 8 8 8 8 9 8 7 7 6 6 6 6 6 6 6
6 4 2 5 7 8 8 7 10 10 10 11 13 13 10 10 11 11 11 11 12 14 14 16 17 17 16 15 14 13 11 9 9 8 8 7 8 8 8 7 7 7 6 6 6 6 6 6 6
7 5 3 5 7 8 9 8 10 9 9 10 12 12 9 10 10 11 11 11 12 13 14 14 15 15 15 15 14 12 11 9 8 8 8 7 7 7 7 7 7 6 6 6 6 5 5 6 6
6 3 3 5 7 8 9 9 9 9 8 7 8 9 10 11 11 11 11 11 11 12 12 12 13 13 12 13 13 13 12 10 8 8 7 7 7 7 7 7 7 6 6 6 5 5 5 6 6
7 4 2 6 7 7 7 9 8 8 9 10 11 13 14 14 12 12 11 11 9 10 10 10 11 10 10 12 13 12 11 9 8 7 7 6 6 6 7 7 7 7 6 6 6 5 6 6 7
4 2 4 5 6 7 7 7 7 7 10 12 13 14 15 13 12 11 11 11 9 8 8 8 9 9 8 9 10 8 8 9 6 6 6 5 4 4 5 8 7 7 7 7 7 7 6 6 6
3 1 3 5 5 6 6 6 7 8 8 10 12 13 13 12 11 11 10 11 10 8 6 6 8 7 7 6 6 5 5 7 6 5 4 4 3 3 4 4 5 6 7 6 6 6 5 5 4
3 1 2 4 5 6 7 6 8 8 8 10 12 13 12 11 10 10 11 10 10 9 7 6 7 6 6 5 4 3 3 4 4 5 3 3 1 2 2 1 1 3 3 3 3 3 3 2 1
3 1 0 2 4 5 7 6 8 10 10 11 12 12 11 10 9 10 10 10 10 9 7 7 7 7 6 4 2 3 3 3 4 4 3 2 2 2 2 1 1 1 2 3 2 2 2 2 2
4 2 0 2 3 3 7 6 7 9 10 11 10 10 9 9 10 11 10 10 10 9 8 7 8 8 6 4 2 2 3 3 4 3 3 2 2 2 1 1 1 1 1 1 1 1 1 2 1
4 5 3 1 3 3 5 5 5 8 11 10 10 10 9 8 9 10 10 10 10 9 8 7 7 8 6 5 3 3 2 3 3 3 4 3 2 2 1 1 1 1 0 1 2 1 1 2 2
5 7 4 3 4 5 5 6 6 9 10 10 10 10 10 8 9 10 10 10 9 9 8 7 7 8 6 4 2 2 2 3 2 3 3 3 2 1 1 1 1 0 0 0 1 1 1 1 1
6 7 5 4 4 4 3 6 7 10 10 10 10 11 11 10 9 10 11 10 10 10 9 7 6 7 6 5 3 3 2 2 2 2 2 2 2 1 1 1 1 1 0 0 0 2 0 1 1
6 3 3 4 4 4 3 3 7 9 11 11 11 12 12 11 11 11 11 12 11 11 9 8 7 6 5 4 3 2 2 2 2 2 1 2 2 1 0 1 0 0 1 1 1 1 0 1 1
9 6 4 5 3 3 4 4 7 10 10 11 12 12 12 11 12 11 11 13 13 11 10 8 7 6 4 3 3 3 3 2 2 3 2 2 1 1 1 1 1 0 0 0 0 0 0 0 0
8 9 6 5 3 3 2 4 6 7 9 11 11 12 12 12 12 12 11 13 13 12 11 9 8 7 5 4 3 3 3 3 3 2 3 2 1 1 1 1 0 0 0 0 0 1 1 1 1
10 9 6 5 6 5 4 4 5 4 6 9 11 12 12 13 14 12 11 12 13 12 11 9 8 7 6 5 3 2 2 2 2 3 2 2 1 1 0 1 0 0 0 1 1 1 1 1 0
9 7 6 5 7 6 5 4 5 6 7 9 10 11 12 13 14 14 12 12 12 12 11 9 9 7 6 5 3 4 3 3 2 2 3 3 1 1 1 1 1 0 1 1 1 1 1 1 1
8 7 7 7 7 8 6 4 4 5 5 8 10 11 12 13 14 14 14 12 12 12 12 10 8 7 7 5 4 3 2 2 2 2 3 3 2 1 1 2 1 1 1 1 1 1 1 0 1
7 8 8 9 8 9 8 6 4 5 8 8 9 12 12 13 14 14 14 12 11 11 11 11 9 7 6 5 4 4 2 2 2 2 2 2 2 2 2 2 1 1 1 1 1 1 1 0 1
9 7 5 6 6 7 6 5 4 7 7 7 8 11 12 14 14 13 13 13 11 11 11 11 10 8 7 6 4 4 4 3 3 2 2 2 1 2 1 2 2 2 2 2 2 1 1 1 1
10 9 8 7 6 5 4 3 4 7 7 6 7 9 10 11 12 12 12 12 11 11 11 10 10 8 7 6 5 4 4 3 2 2 2 1 1 1 2 2 2 2 2 2 2 1 2 1 1
10 10 10 9 9 8 4 1 4 8 9 7 7 9 9 10 11 11 12 11 11 10 10 10 10 8 8 7 5 5 4 3 2 2 2 1 1 1 3 2 1 1 0 0 0 1 1 1 1
11 11 7 6 6 6 6 5 3 6 7 7 7 6 7 8 9 10 11 11 10 11 10 10 9 8 7 7 6 5 4 3 2 2 1 2 1 1 2 2 1 1 0 1 1 1 1 1 1
10 11 8 6 7 6 6 3 2 4 7 8 7 6 6 7 8 8 10 10 9 9 10 10 9 8 7 6 5 4 4 4 3 2 2 2 2 2 2 1 1 1 0 1 1 2 2 2 1
11 12 11 8 7 8 7 3 2 3 5 8 9 7 7 6 7 8 8 9 9 9 9 9 9 9 7 6 5 4 3 3 3 3 2 2 2 2 2 2 1 1 1 1 1 2 1 1 1
Wind_Direction
197 211 217 237 252 244 63 58 56 59 58 54 53 62 63 57 63 87 103 102 108 112 118 115 112 112 113 112 113 112 110 107 105 105 104 102 103 105 108 109 121 129 130 131 135 138 138 138 143
219 221 226 243 257 56 59 61 64 61 66 67 65 68 69 67 80 99 103 110 115 115 120 118 119 116 115 115 117 116 114 111 108 107 105 104 105 107 109 110 114 122 125 126 130 136 138 138 145
237 238 245 225 63 67 63 58 69 71 74 76 74 63 64 73 83 108 120 121 114 112 115 119 123 121 120 120 120 118 116 113 109 108 107 105 107 109 112 111 117 120 124 126 128 133 137 142 150
240 235 235 228 70 64 72 69 78 75 71 76 78 75 71 71 90 108 123 121 112 113 116 123 125 125 124 123 124 120 117 117 116 112 111 110 110 112 114 112 114 118 124 129 133 138 143 150 161
243 253 239 72 71 72 68 67 72 74 75 78 83 90 85 82 96 111 116 112 112 113 118 128 129 130 129 128 126 123 121 122 123 122 120 120 118 118 121 120 121 123 128 133 140 147 153 157 169
261 263 275 80 80 77 77 76 79 78 83 91 97 98 96 105 108 113 112 110 108 110 119 128 134 133 134 132 130 128 126 127 130 131 130 128 128 128 132 132 130 132 136 139 145 152 162 169 180
260 289 316 66 73 75 75 69 73 77 78 86 101 108 115 115 114 112 110 107 105 109 118 130 137 138 140 137 135 135 134 135 135 139 139 138 138 137 137 140 140 142 145 152 158 163 175 182 192
261 290 331 61 76 74 76 74 74 81 81 85 102 112 126 128 128 119 114 109 106 111 118 125 132 137 141 141 144 146 144 144 143 144 151 149 148 150 153 153 150 156 161 164 168 180 190 198 206
269 269 21 61 78 83 83 85 88 88 92 84 82 105 124 132 134 127 120 114 114 116 123 128 129 136 139 141 142 151 151 150 152 153 158 160 166 160 160 151 157 170 177 178 183 195 201 208 216
236 294 49 63 84 94 94 99 108 105 101 100 99 110 127 135 139 135 129 124 121 117 121 125 130 135 137 135 140 154 154 148 155 142 154 170 169 151 138 145 168 178 183 186 197 204 208 215 215
218 328 42 68 79 91 97 103 107 101 104 112 121 127 132 137 143 138 129 123 124 125 118 120 122 121 120 118 139 150 143 146 152 142 153 155 154 143 133 153 168 178 183 191 189 201 212 208 201
243 8 25 80 98 94 88 88 91 93 105 118 126 133 138 145 145 135 129 129 130 133 130 120 114 103 97 103 119 131 131 142 141 140 141 142 132 109 104 126 165 175 175 166 176 179 185 185 174
268 208 93 110 109 106 108 102 103 105 109 114 123 136 144 143 140 132 133 132 132 134 132 117 106 98 93 90 106 120 118 126 126 135 154 144 125 97 97 112 173 203 175 168 171 163 159 152 171
304 319 290 122 113 132 122 125 120 122 122 124 131 136 140 140 139 135 140 138 136 135 129 116 119 114 115 121 125 126 123 116 120 135 132 134 107 82 72 61 55 344 155 141 153 141 144 149 149
306 284 278 197 178 167 125 106 119 135 134 138 138 137 136 140 139 138 139 143 140 136 131 129 133 127 133 139 155 130 126 128 135 129 118 117 104 101 118 107 78 351 1 136 150 156 172 166 166
252 256 242 206 204 205 174 139 153 158 150 149 146 146 147 151 152 142 140 141 137 133 133 141 143 136 139 132 143 128 117 112 120 121 119 120 121 123 154 91 97 180 221 109 119 141 191 153 144
255 242 236 216 201 218 177 140 160 171 160 157 155 156 156 161 157 146 148 143 137 135 135 136 125 131 137 140 146 132 118 103 107 110 111 127 129 129 119 86 52 266 275 74 166 112 89 99 112
255 256 268 249 192 218 144 142 180 180 164 163 164 160 164 166 161 153 151 143 138 137 137 138 134 131 138 143 146 140 131 141 128 117 93 110 132 138 156 146 117 319 10 36 55 99 161 201 213
270 274 262 258 222 224 164 176 209 188 173 165 166 165 167 164 156 153 154 148 145 143 145 149 143 143 149 148 164 159 165 156 137 139 127 128 142 147 130 353 118 339 86 58 67 122 163 236 144
251 260 255 269 244 251 200 188 219 194 173 167 168 166 164 160 153 155 159 155 152 151 151 151 152 153 160 159 172 168 160 154 141 132 124 135 150 140 137 107 337 40 74 43 68 81 28 316 42
248 250 252 258 271 254 245 230 228 191 182 169 173 170 169 167 160 159 160 156 154 156 161 162 158 156 163 166 169 152 146 150 143 143 135 152 147 137 26 107 48 352 157 126 155 119 181 259 297
263 259 259 248 263 271 256 252 194 188 185 181 174 171 169 164 160 159 160 158 157 159 159 155 157 158 161 173 175 176 163 162 160 150 145 149 146 158 137 113 97 54 43 98 207 155 209 229 299
270 292 285 269 266 272 263 259 226 184 194 193 180 174 169 163 161 158 159 159 160 159 158 155 151 158 160 170 167 177 169 170 149 144 139 147 146 159 161 139 149 178 156 160 163 107 158 185 286
263 274 272 268 265 263 247 238 227 191 193 194 179 168 162 160 158 156 157 156 159 157 155 152 149 153 162 170 168 166 178 180 153 155 159 176 166 167 161 133 150 178 178 183 150 192 161 197 286
247 258 264 254 243 254 246 232 193 179 178 177 166 163 158 156 156 153 154 158 161 160 157 153 154 160 165 171 174 169 189 198 189 184 192 202 169 149 148 140 156 178 176 168 161 178 190 205 249
247 246 250 266 275 272 251 234 153 139 130 146 143 144 150 154 152 153 157 159 163 163 158 154 156 162 167 171 171 169 187 200 194 195 205 210 190 132 131 121 133 168 185 180 174 198 194 201 258
250 255 267 281 285 282 275 214 148 138 145 148 138 143 155 154 152 154 157 160 161 161 156 156 158 166 171 174 170 178 184 199 190 189 200 202 126 152 113 127 144 91 124 244 187 240 247 218 254
245 258 266 269 278 280 280 257 215 155 150 137 127 143 149 151 150 154 157 160 163 162 157 156 157 165 172 172 177 183 182 186 191 191 152 129 110 71 125 138 122 124 343 246 230 247 233 217 253
238 248 254 265 267 276 265 267 97 138 147 144 137 142 144 140 150 151 153 155 156 157 156 155 157 162 166 168 168 173 172 176 180 180 169 161 150 142 138 161 171 184 218 292 253 235 206 220 242
240 242 243 249 254 267 271 258 92 148 152 144 141 136 139 139 142 144 145 146 154 160 159 159 162 165 166 163 158 158 154 172 179 178 173 169 167 173 184 193 202 216 208 226 275 275 234 214 211
Height
1482 1482 1483 1486 1485 1482 1475 1465 1458 1459 1461 1462 1463 1464 1468 1472 1479 1491 1491 1490 1490 1490 1490 1491 1492 1493 1494 1496 1498 1499 1501 1502 1504 1505 1506 1507 1508 1509 1509 1507 1506 1511 1515 1518 1520 1522 1524 1525 1527
1481 1483 1486 1485 1484 1486 1476 1463 1462 1462 1463 1464 1465 1468 1472 1477 1482 1487 1489 1490 1490 1490 1491 1492 1493 1494 1496 1498 1500 1501 1503 1504 1506 1507 1508 1509 1510 1510 1510 1510 1510 1513 1516 1519 1521 1522 1524 1526 1527
1481 1484 1485 1480 1478 1479 1475 1463 1462 1462 1464 1465 1468 1472 1477 1482 1486 1488 1490 1491 1491 1491 1491 1492 1494 1495 1497 1499 1501 1503 1505 1506 1508 1509 1510 1511 1511 1512 1512 1513 1514 1516 1518 1520 1521 1523 1525 1526 1528
1482 1483 1481 1476 1476 1468 1465 1462 1461 1463 1465 1466 1470 1476 1483 1486 1488 1489 1490 1491 1491 1491 1491 1492 1495 1497 1499 1501 1503 1505 1507 1508 1510 1511 1512 1512 1513 1514 1514 1515 1516 1518 1519 1520 1522 1524 1525 1527 1528
1483 1481 1478 1475 1471 1464 1461 1461 1462 1464 1466 1469 1474 1481 1487 1489 1490 1491 1491 1492 1491 1490 1490 1492 1495 1498 1500 1503 1505 1507 1509 1510 1511 1512 1513 1514 1515 1515 1516 1517 1518 1519 1520 1521 1523 1524 1525 1527 1528
1481 1475 1478 1477 1469 1462 1462 1462 1463 1466 1468 1472 1476 1482 1490 1491 1491 1492 1493 1493 1492 1489 1489 1492 1496 1499 1502 1505 1507 1508 1510 1512 1513 1514 1515 1515 1516 1516 1517 1518 1519 1520 1521 1522 1523 1524 1526 1527 1528
1480 1475 1474 1469 1468 1465 1462 1463 1465 1467 1469 1473 1477 1483 1490 1492 1493 1494 1494 1495 1494 1492 1492 1494 1498 1502 1504 1507 1509 1510 1512 1513 1514 1515 1516 1517 1518 1518 1519 1519 1519 1520 1521 1522 1523 1525 1526 1527 1528
1477 1473 1470 1466 1468 1468 1464 1465 1467 1469 1472 1475 1477 1482 1489 1493 1494 1495 1496 1497 1497 1497 1498 1500 1502 1505 1507 1509 1511 1512 1514 1515 1516 1517 1518 1518 1519 1519 1520 1520 1520 1521 1521 1522 1524 1525 1526 1527 1529
1474 1475 1473 1466 1466 1467 1464 1467 1470 1472 1474 1476 1479 1483 1488 1492 1495 1496 1497 1499 1500 1501 1502 1504 1506 1508 1510 1511 1513 1514 1516 1517 1518 1518 1519 1520 1520 1520 1520 1520 1520 1520 1521 1522 1524 1525 1526 1527 1529
1470 1474 1467 1460 1460 1462 1464 1467 1469 1471 1475 1479 1483 1487 1490 1493 1495 1497 1498 1500 1502 1504 1505 1507 1508 1510 1512 1513 1515 1516 1518 1519 1519 1520 1520 1521 1521 1522 1522 1521 1520 1519 1520 1522 1524 1525 1527 1528 1529
1466 1466 1460 1459 1460 1462 1464 1467 1469 1470 1476 1479 1484 1488 1491 1493 1496 1498 1500 1501 1504 1506 1507 1509 1510 1512 1514 1515 1516 1518 1519 1520 1521 1521 1522 1522 1523 1523 1522 1521 1520 1520 1521 1523 1525 1526 1527 1528 1530
1463 1461 1459 1460 1461 1463 1465 1467 1470 1473 1477 1481 1484 1488 1491 1493 1496 1498 1500 1503 1505 1507 1509 1510 1511 1513 1514 1515 1517 1519 1520 1521 1522 1522 1523 1523 1524 1524 1523 1523 1522 1522 1523 1524 1526 1527 1528 1529 1530
1462 1461 1460 1460 1462 1464 1466 1469 1471 1475 1479 1482 1485 1488 1491 1493 1496 1499 1501 1504 1505 1507 1509 1511 1511 1513 1514 1516 1518 1520 1521 1522 1523 1523 1524 1524 1524 1524 1524 1524 1524 1524 1525 1526 1526 1527 1528 1529 1530
1462 1460 1460 1460 1462 1463 1465 1468 1472 1475 1479 1482 1485 1488 1491 1493 1496 1498 1502 1504 1506 1508 1510 1511 1511 1513 1515 1516 1518 1520 1522 1523 1524 1524 1524 1525 1525 1525 1525 1525 1525 1525 1526 1526 1527 1527 1528 1529 1530
1464 1463 1462 1460 1461 1462 1465 1471 1472 1476 1478 1481 1485 1488 1491 1493 1496 1498 1501 1503 1505 1507 1510 1511 1512 1514 1515 1517 1519 1521 1522 1523 1524 1524 1525 1525 1525 1525 1526 1526 1525 1526 1526 1527 1527 1527 1528 1529 1530
1465 1469 1472 1463 1460 1460 1466 1480 1472 1475 1477 1480 1484 1487 1491 1493 1495 1498 1500 1503 1505 1507 1509 1511 1513 1514 1516 1517 1519 1521 1523 1524 1524 1525 1525 1525 1525 1525 1526 1526 1526 1526 1526 1526 1527 1527 1528 1529 1530
1470 1475 1473 1464 1457 1457 1463 1472 1469 1472 1474 1478 1482 1486 1489 1493 1495 1497 1500 1502 1504 1506 1508 1511 1514 1515 1516 1518 1519 1521 1522 1524 1524 1525 1525 1525 1525 1525 1525 1526 1525 1526 1526 1526 1526 1527 1528 1528 1529
1477 1473 1473 1469 1458 1458 1463 1468 1467 1469 1470 1475 1479 1483 1487 1491 1494 1497 1499 1501 1504 1506 1508 1511 1513 1514 1516 1518 1519 1521 1522 1523 1524 1524 1525 1525 1525 1525 1525 1525 1525 1525 1525 1526 1526 1527 1527 1528 1529
1464 1468 1471 1464 1454 1458 1462 1468 1464 1464 1466 1471 1475 1480 1484 1488 1492 1495 1498 1501 1503 1505 1507 1510 1512 1514 1516 1517 1519 1520 1521 1523 1523 1524 1524 1525 1525 1525 1525 1525 1525 1525 1525 1525 1525 1526 1527 1528 1529
1462 1467 1466 1461 1454 1457 1462 1464 1461 1460 1463 1467 1472 1477 1481 1486 1491 1494 1497 1500 1502 1504 1507 1509 1511 1513 1515 1517 1518 1520 1521 1522 1523 1523 1524 1524 1524 1524 1525 1524 1524 1524 1524 1525 1525 1525 1526 1527 1528
1461 1463 1463 1464 1456 1454 1461 1469 1463 1459 1461 1464 1469 1474 1479 1483 1488 1492 1495 1499 1501 1503 1506 1508 1510 1512 1514 1516 1518 1520 1520 1522 1523 1523 1523 1523 1524 1524 1524 1524 1523 1523 1524 1524 1524 1525 1525 1526 1527
1462 1452 1455 1459 1465 1468 1465 1482 1467 1460 1462 1462 1466 1470 1475 1480 1485 1490 1494 1497 1500 1502 1504 1507 1509 1511 1512 1514 1516 1518 1519 1520 1521 1522 1522 1522 1523 1523 1523 1523 1523 1523 1523 1523 1523 1524 1525 1526 1526
1454 1449 1453 1456 1462 1469 1465 1478 1472 1460 1466 1463 1463 1467 1471 1477 1482 1487 1491 1495 1498 1501 1503 1505 1507 1509 1511 1513 1515 1517 1518 1519 1520 1521 1521 1521 1522 1522 1522 1522 1522 1522 1522 1523 1523 1524 1524 1525 1525
1448 1451 1454 1456 1463 1482 1470 1475 1477 1464 1462 1459 1460 1463 1469 1474 1479 1484 1489 1493 1497 1500 1502 1504 1505 1508 1510 1512 1514 1515 1516 1518 1519 1519 1520 1520 1521 1521 1521 1521 1522 1522 1522 1522 1523 1523 1524 1524 1524
1449 1462 1480 1484 1485 1482 1461 1466 1468 1455 1451 1455 1458 1462 1466 1471 1477 1482 1487 1491 1495 1498 1501 1503 1504 1506 1508 1510 1512 1514 1515 1516 1517 1518 1519 1519 1520 1520 1520 1520 1520 1521 1521 1522 1522 1523 1523 1523 1523
1450 1457 1478 1491 1487 1476 1463 1467 1458 1446 1450 1453 1457 1461 1465 1470 1475 1480 1485 1489 1493 1497 1499 1501 1503 1505 1507 1508 1510 1512 1513 1514 1515 1517 1517 1518 1519 1519 1519 1519 1519 1520 1520 1521 1521 1521 1522 1522 1522
1451 1452 1448 1463 1471 1478 1470 1462 1452 1446 1450 1453 1456 1461 1465 1469 1474 1478 1483 1487 1491 1495 1497 1500 1502 1503 1505 1507 1508 1510 1511 1513 1514 1515 1516 1517 1517 1518 1518 1518 1518 1519 1519 1519 1520 1520 1520 1521 1521
1444 1447 1454 1468 1485 1491 1481 1473 1466 1454 1453 1453 1458 1462 1466 1469 1473 1477 1481 1485 1489 1492 1495 1497 1499 1502 1504 1506 1507 1508 1509 1511 1512 1513 1514 1514 1515 1516 1516 1516 1517 1517 1518 1518 1518 1518 1519 1519 1519
1448 1451 1454 1462 1468 1484 1493 1479 1450 1451 1451 1454 1458 1462 1465 1469 1472 1476 1479 1484 1488 1492 1494 1496 1498 1500 1502 1504 1505 1507 1508 1510 1510 1511 1511 1512 1513 1514 1514 1515 1515 1516 1516 1516 1516 1516 1517 1517 1517
1442 1446 1452 1468 1472 1468 1474 1474 1448 1450 1450 1453 1458 1463 1466 1469 1472 1476 1479 1483 1488 1491 1493 1495 1497 1499 1501 1503 1504 1505 1507 1508 1509 1509 1509 1510 1511 1512 1512 1512 1513 1513 1514 1514 1514 1515 1515 1515 1515